Find Kosmos-510

NORAD ID: 6123 Int'l Des: 1972-057 Owner: OKB10 Country: SU operational
LEOCIRCULAR

リアルタイム位置

3D地球を読み込み中...

Kosmos-510について

説明を読み込み中...

次回通過

Passes for default location (London). Set your location on the main map for personalized predictions.

高度履歴

Loading altitude history...

軌道要素

1 6123U 72057G 26120.06784807 -.00000003 00000-0 92457-4 0 9999
2 6123 74.0242 114.5085 0008536 21.7747 37.0056 12.41074399436348
Epoch: Apr 30, 2026 • Age: 9 hours

現在のステータス

高度 1517.3 km
速度 7.10 km/s
衛星直下点 -24.18°S, 69.26°W
タイプ other

Most Searched